This is the latest recevied weather packets stored in our database for station/object OSTR-WX. If no packets are shown the sender has not sent any weather packets the latest 10 day(s).
| Time | Temp. | Humidity | Pressure | Rain* | Wind** | Luminosity | Snow |
|---|---|---|---|---|---|---|---|
| 1777586026 | 7.78° C | 68% | 1029.6 hPa | - | - | - | - |
| 1777585075 | 7.78° C | 65% | 1029.7 hPa | - | - | - | - |
| 1777585069 | 7.78° C | 65% | 1029.7 hPa | - | - | - | - |
| 1777584112 | 7.22° C | 67% | 1029.7 hPa | - | - | - | - |
| 1777583155 | 7.22° C | 64% | 1029.9 hPa | - | - | - | - |
| 1777582197 | 6.67° C | 65% | 1029.9 hPa | - | - | - | - |
| 1777581240 | 6.67° C | 65% | 1030 hPa | - | - | - | - |
| 1777580284 | 6.67° C | 65% | 1029.9 hPa | - | - | - | - |
| 1777579328 | 7.78° C | 60% | 1029.7 hPa | - | - | - | - |
| 1777578372 | 8.33° C | 57% | 1029.6 hPa | - | - | - | - |
| 1777578371 | 8.33° C | 57% | 1029.6 hPa | - | - | - | - |
| 1777577420 | 8.89° C | 55% | 1029.4 hPa | - | - | - | - |
| 1777577413 | 8.89° C | 55% | 1029.4 hPa | - | - | - | - |
| 1777576461 | 9.44° C | 55% | 1029.4 hPa | - | - | - | - |
| 1777576458 | 9.44° C | 55% | 1029.4 hPa | - | - | - | - |
| 1777575501 | 9.44° C | 52% | 1029.3 hPa | - | - | - | - |
| 1777574549 | 10.56° C | 47% | 1029 hPa | - | - | - | - |
| 1777574546 | 10.56° C | 47% | 1029 hPa | - | - | - | - |
| 1777574542 | 10.56° C | 47% | 1029 hPa | - | - | - | - |
| 1777573590 | 10.56° C | 43% | 1029 hPa | - | - | - | - |
| 1777573587 | 10.56° C | 43% | 1029 hPa | - | - | - | - |
| 1777572635 | 0° C | 100% | 0 hPa | - | - | - | - |
| 1777572632 | 0° C | 100% | 0 hPa | - | - | - | - |
| 1777571675 | 11.67° C | 39% | 1028.6 hPa | - | - | - | - |
| 1777571672 | 11.67° C | 39% | 1028.6 hPa | - | - | - | - |
* Rain since midnight (hover to see other rain measurements)
** Current wind speed in m/s (hover to see current wind gust speed)